Home > Weather > Oelde > Past weeks

Flag for Germany Weather for the Past 2 Weeks in Oelde, North Rhine-Westphalia, Germany

Now
43 °F

Passing clouds.


Feels Like: 43 °F
Forecast: 39 / 57 °F
Wind: 2 mph from North

Location: Paderborn / Lippstadt

Current Time: May 1, 2016 at 1:21:31 AM

Latest Report: May 1, 2016 at 12:20 AM


Visibility: N/A

Pressure: 30.15 "Hg

Humidity: 100%

Dew Point: 43 °F

Location of OeldeLocation

Historic Weather in Oelde — Graph

°F

Oelde Temperature Yesterday

Maximum temperature yesterday: 46 °F (at 5:50 PM)
Minimum temperature yesterday: 37 °F (at 1:50 AM)
Average temperature yesterday: 42 °F

High & Low Weather Summary for the Past Weeks

 TemperatureHumidityPressure
High63 °F (Apr 21, 2:50 PM)100% (Apr 16, 10:20 AM)30.45 "Hg (Apr 16, 10:20 AM)
Low32 °F (Apr 24, 4:20 PM)30% (Apr 21, 3:50 PM)29.45 "Hg (Apr 26, 10:50 AM)
Average44 °F77%29.94 "Hg
* Reported Apr 15 11:20 PM — Apr 30 11:50 PM, Oelde, Weather by CustomWeather, © 2016

Note: Actual official high and low records may vary slightly from our data, if they occured in-between our weather recording intervals... More about our weather records

Advertising

Oelde Weather History for the Previous 24 Hours

Scroll right to see more
 ConditionsComfort  
Time TempWeatherWind HumidityBarometerVisibility
11:50 PM
Sat, Apr 30
43 °FPassing clouds.2 mph100%30.15 "HgN/A
10:50 PM43 °FPassing clouds.3 mph100%30.15 "HgN/A
10:20 PM45 °FPassing clouds.3 mph93%30.15 "HgN/A
9:50 PM45 °FPassing clouds.3 mph87%30.12 "HgN/A
9:20 PM45 °FPassing clouds.3 mph93%30.12 "HgN/A
8:50 PM45 °FPassing clouds.3 mph93%30.12 "HgN/A
8:20 PM45 °FSunny.2 mph93%30.12 "Hg10 mi
7:50 PM46 °FPassing clouds.3 mph87%30.12 "HgN/A
7:20 PM46 °FBroken clouds.5 mph87%30.12 "HgN/A
6:50 PM46 °FBroken clouds.5 mph87%30.09 "HgN/A
6:20 PM46 °FBroken clouds.5 mph87%30.09 "HgN/A
5:50 PM46 °FBroken clouds.5 mph87%30.09 "HgN/A
5:20 PM45 °FBroken clouds.5 mph93%30.09 "HgN/A
4:50 PM45 °FBroken clouds.5 mph93%30.09 "HgN/A
4:20 PM45 °FBroken clouds.3 mph93%30.09 "HgN/A
3:50 PM45 °FBroken clouds.5 mph93%30.09 "HgN/A
3:20 PM45 °FBroken clouds.6 mph93%30.09 "HgN/A
2:50 PM43 °FMore clouds than sun.6 mph100%30.09 "HgN/A
2:20 PM43 °FMore clouds than sun.6 mph100%30.09 "HgN/A
1:50 PM43 °FPartly sunny.6 mph93%30.07 "HgN/A
1:20 PM43 °FPartly sunny.6 mph100%30.07 "HgN/A
12:50 PM43 °FPartly sunny.7 mph100%30.07 "HgN/A
12:20 PM43 °FPartly sunny.6 mph100%30.07 "HgN/A
11:50 AM43 °FPartly sunny.5 mph93%30.07 "HgN/A
11:20 AM41 °FPartly sunny.6 mph100%30.07 "HgN/A
10:50 AM41 °FPartly sunny.6 mph100%30.07 "HgN/A
10:20 AM43 °FPartly sunny.7 mph100%30.07 "HgN/A
9:50 AM43 °FPartly sunny.6 mph100%30.04 "Hg4 mi
9:20 AM43 °FLow clouds.5 mph100%30.04 "Hg3 mi
8:50 AM43 °FLow clouds.5 mph100%30.04 "Hg5 mi
8:20 AM45 °FScattered clouds.3 mph93%30.04 "Hg5 mi
7:50 AM43 °FPassing clouds.3 mph93%30.01 "HgN/A
7:20 AM41 °FScattered clouds.5 mph100%30.01 "HgN/A
6:50 AM39 °FPassing clouds.2 mph93%30.01 "HgN/A
6:20 AM37 °FPassing clouds.8 mph100%30.01 "HgN/A
5:50 AM37 °FPassing clouds.2 mph100%30.01 "HgN/A
5:20 AM37 °FPassing clouds.7 mph100%30.01 "HgN/A
4:50 AM37 °FClear.7 mph100%30.01 "Hg10 mi
4:20 AM39 °FClear.8 mph100%29.98 "Hg10 mi
3:50 AM39 °FClear.6 mph100%30.01 "Hg10 mi
2:50 AM37 °FClear.2 mph100%30.01 "Hg10 mi
1:50 AM37 °FClear.3 mph100%30.01 "Hg10 mi
1:20 AM39 °FClear.3 mph100%30.01 "Hg10 mi
Weather by CustomWeather, © 2016

See weather overviewHow to use our weather pages